| time (UTC) | temp F | wind direction | speed knots | gust knots | rain 1hr in | rain 24hr in | rain mn in | humidity % | barometer mb |
| 20260503021017 | 57 | 61 | 0.9 | 1.7 | 0.00 | 0.06 | 0.00 | 89 | 1014.3 |
| 20260503020017 | 57 | 61 | 0.0 | 1.7 | 0.00 | 0.06 | 0.00 | 89 | 1014.2 |
| 20260503015016 | 57 | 61 | 0.0 | 0.9 | 0.00 | 0.06 | 0.00 | 89 | 1014.2 |
| 20260503014017 | 57 | 61 | 0.9 | 0.9 | 0.00 | 0.06 | 0.00 | 88 | 1014.3 |
| 20260503013037 | 57 | 61 | 0.0 | 1.7 | 0.00 | 0.06 | 0.00 | 87 | 1014.4 |
| 20260503012017 | 57 | 61 | 0.9 | 1.7 | 0.00 | 0.06 | 0.00 | 87 | 1014.5 |
| 20260503011017 | 57 | 0.0 | 1.7 | 0.00 | 0.06 | 0.00 | 87 | 1014.6 | |
| 20260503010017 | 57 | 61 | 1.7 | 2.6 | 0.00 | 0.06 | 0.00 | 88 | 1014.6 |
| 20260503005017 | 57 | 61 | 0.0 | 1.7 | 0.00 | 0.06 | 0.00 | 88 | 1014.7 |
| 20260503004017 | 58 | 56 | 1.7 | 2.6 | 0.00 | 0.06 | 0.00 | 87 | 1014.9 |
| 20260503003037 | 58 | 351 | 0.0 | 0.9 | 0.00 | 0.06 | 0.00 | 87 | 1014.8 |
| 20260503002037 | 59 | 0.0 | 0.9 | 0.00 | 0.06 | 0.00 | 85 | 1015.0 | |
| 20260503001017 | 59 | 256 | 0.0 | 0.9 | 0.00 | 0.06 | 0.00 | 85 | 1014.8 |
| 20260503000017 | 59 | 0.0 | 0.9 | 0.00 | 0.06 | 0.00 | 85 | 1014.9 | |
| 20260502235016 | 58 | 256 | 0.9 | 1.7 | 0.00 | 0.06 | 0.06 | 85 | 1014.9 |
| 20260502234016 | 58 | 256 | 0.9 | 1.7 | 0.03 | 0.06 | 0.06 | 87 | 1015.0 |
| 20260502233016 | 58 | 256 | 0.0 | 0.9 | 0.03 | 0.06 | 0.06 | 88 | 1015.1 |
| 20260502232036 | 58 | 256 | 0.0 | 0.9 | 0.03 | 0.06 | 0.06 | 87 | 1015.1 |
| 20260502231017 | 59 | 256 | 0.0 | 1.7 | 0.03 | 0.06 | 0.06 | 86 | 1015.0 |
| 20260502230036 | 59 | 248 | 0.9 | 2.6 | 0.03 | 0.06 | 0.06 | 85 | 1015.2 |
| 20260502225016 | 60 | 239 | 1.7 | 3.5 | 0.03 | 0.06 | 0.06 | 84 | 1015.5 |
| 20260502224016 | 60 | 276 | 0.9 | 2.6 | 0.00 | 0.03 | 0.03 | 82 | 1015.3 |
| 20260502223016 | 60 | 276 | 0.0 | 0.9 | 0.00 | 0.03 | 0.03 | 82 | 1015.0 |
| 20260502222036 | 60 | 276 | 0.9 | 1.7 | 0.00 | 0.03 | 0.03 | 83 | 1015.2 |
| 20260502221016 | 60 | 276 | 0.9 | 1.7 | 0.00 | 0.03 | 0.03 | 82 | 1015.4 |
| 20260502220016 | 60 | 276 | 0.9 | 1.7 | 0.00 | 0.03 | 0.03 | 80 | 1015.3 |
| 20260502215036 | 60 | 274 | 0.9 | 3.5 | 0.00 | 0.03 | 0.03 | 78 | 1015.5 |
| 20260502214036 | 60 | 242 | 1.7 | 1.7 | 0.00 | 0.03 | 0.03 | 76 | 1015.2 |
| 20260502213017 | 60 | 241 | 1.7 | 3.5 | 0.00 | 0.03 | 0.03 | 76 | 1015.1 |
| 20260502212016 | 61 | 235 | 1.7 | 3.5 | 0.00 | 0.03 | 0.03 | 76 | 1015.2 |
| 20260502211016 | 61 | 249 | 0.9 | 2.6 | 0.00 | 0.03 | 0.03 | 75 | 1015.1 |
| 20260502210016 | 61 | 244 | 1.7 | 3.5 | 0.00 | 0.03 | 0.03 | 74 | 1014.9 |
| 20260502205016 | 61 | 245 | 0.9 | 3.5 | 0.00 | 0.03 | 0.03 | 74 | 1014.9 |
| 20260502204016 | 61 | 243 | 1.7 | 3.5 | 0.00 | 0.03 | 0.03 | 73 | 1014.9 |
| 20260502203016 | 61 | 235 | 1.7 | 2.6 | 0.00 | 0.03 | 0.03 | 72 | 1014.7 |
| 20260502202037 | 61 | 245 | 0.9 | 2.6 | 0.00 | 0.03 | 0.03 | 72 | 1014.6 |
| 20260502201016 | 62 | 248 | 1.7 | 3.5 | 0.00 | 0.03 | 0.03 | 71 | 1014.6 |
| 20260502200016 | 62 | 256 | 0.9 | 2.6 | 0.00 | 0.03 | 0.03 | 70 | 1014.5 |
| 20260502195016 | 62 | 261 | 0.9 | 2.6 | 0.00 | 0.03 | 0.03 | 68 | 1014.4 |
| 20260502194017 | 62 | 252 | 1.7 | 3.5 | 0.00 | 0.03 | 0.03 | 67 | 1014.3 |
| 20260502193036 | 63 | 251 | 1.7 | 4.3 | 0.00 | 0.03 | 0.03 | 66 | 1014.2 |
| 20260502192017 | 63 | 260 | 1.7 | 4.3 | 0.00 | 0.03 | 0.03 | 64 | 1014.2 |
| 20260502191036 | 64 | 252 | 2.6 | 5.2 | 0.00 | 0.03 | 0.03 | 63 | 1014.2 |
| 20260502190037 | 64 | 274 | 1.7 | 4.3 | 0.00 | 0.03 | 0.03 | 62 | 1014.1 |
| 20260502185016 | 65 | 261 | 2.6 | 5.2 | 0.00 | 0.03 | 0.03 | 61 | 1014.3 |
| 20260502184037 | 65 | 252 | 2.6 | 7.0 | 0.00 | 0.03 | 0.03 | 61 | 1014.2 |
| 20260502183017 | 65 | 264 | 3.5 | 9.6 | 0.00 | 0.03 | 0.03 | 63 | 1014.1 |
| 20260502182036 | 65 | 264 | 2.6 | 7.0 | 0.00 | 0.03 | 0.03 | 64 | 1014.0 |
| 20260502181017 | 64 | 269 | 4.3 | 9.6 | 0.00 | 0.03 | 0.03 | 65 | 1014.0 |
| 20260502164016 | 67 | 284 | 4.3 | 13.0 | 0.00 | 0.03 | 0.03 | 60 | 1014.4 |
| 20260502163016 | 67 | 278 | 6.1 | 11.3 | 0.00 | 0.03 | 0.03 | 61 | 1014.3 |
| 20260502162016 | 67 | 285 | 5.2 | 13.0 | 0.00 | 0.03 | 0.03 | 62 | 1014.4 |
| 20260502161036 | 66 | 299 | 7.0 | 13.9 | 0.00 | 0.03 | 0.03 | 64 | 1014.6 |
| 20260502152017 | 72 | 252 | 4.3 | 12.2 | 0.00 | 0.03 | 0.03 | 55 | 1014.9 |
| 20260502151017 | 71 | 257 | 5.2 | 9.6 | 0.00 | 0.03 | 0.03 | 57 | 1014.9 |
| 20260502123037 | 68 | 240 | 2.6 | 7.8 | 0.00 | 0.03 | 0.03 | 64 | 1016.7 |
| 20260502122017 | 68 | 229 | 3.5 | 7.0 | 0.00 | 0.03 | 0.03 | 65 | 1017.0 |
| 20260502121017 | 68 | 154 | 2.6 | 8.7 | 0.00 | 0.03 | 0.03 | 65 | 1017.0 |
| 20260502115017 | 66 | 238 | 4.3 | 7.8 | 0.00 | 0.03 | 0.03 | 69 | 1017.1 |
| 20260502114017 | 65 | 130 | 2.6 | 7.0 | 0.00 | 0.03 | 0.03 | 71 | 1017.4 |
| 20260502113017 | 65 | 243 | 1.7 | 7.0 | 0.00 | 0.03 | 0.03 | 72 | 1017.6 |
| 20260502112037 | 65 | 249 | 3.5 | 8.7 | 0.00 | 0.03 | 0.03 | 72 | 1017.8 |
| 20260502111017 | 65 | 218 | 2.6 | 6.1 | 0.00 | 0.03 | 0.03 | 74 | 1017.8 |
| 20260502110017 | 64 | 233 | 2.6 | 7.0 | 0.00 | 0.03 | 0.03 | 75 | 1017.9 |
| 20260502105017 | 64 | 192 | 1.7 | 7.8 | 0.00 | 0.03 | 0.03 | 76 | 1018.1 |
| 20260502104017 | 64 | 238 | 3.5 | 6.1 | 0.00 | 0.03 | 0.03 | 76 | 1018.3 |
| 20260502103017 | 64 | 88 | 1.7 | 3.5 | 0.00 | 0.03 | 0.03 | 79 | 1018.4 |
| 20260502102017 | 64 | 140 | 1.7 | 5.2 | 0.00 | 0.03 | 0.03 | 80 | 1018.4 |
| 20260502101037 | 63 | 263 | 0.9 | 4.3 | 0.00 | 0.03 | 0.03 | 82 | 1018.5 |
| 20260502091017 | 61 | 117 | 1.7 | 4.3 | 0.00 | 0.03 | 0.03 | 87 | 1018.6 |
| 20260502071017 | 59 | 134 | 1.7 | 5.2 | 0.01 | 0.01 | 0.01 | 85 | 1018.8 |
| 20260502070017 | 59 | 130 | 1.7 | 5.2 | 0.01 | 0.01 | 0.01 | 85 | 1019.0 |
| 20260502065037 | 60 | 120 | 2.6 | 5.2 | 0.01 | 0.01 | 0.01 | 84 | 1019.2 |
| 20260502064017 | 59 | 225 | 0.9 | 3.5 | 0.00 | 0.00 | 0.00 | 84 | 1019.2 |
| 20260502063017 | 60 | 237 | 1.7 | 3.5 | 0.00 | 0.00 | 0.00 | 83 | 1019.4 |
| 20260502062035 | 60 | 265 | 1.7 | 7.0 | 0.00 | 0.00 | 0.00 | 82 | 1019.6 |
| 20260502061037 | 60 | 245 | 3.5 | 9.6 | 0.00 | 0.00 | 0.00 | 81 | 1019.2 |
| 20260502060015 | 60 | 323 | 0.0 | 4.3 | 0.00 | 0.00 | 0.00 | 81 | 1018.8 |
| 20260502055017 | 60 | 92 | 0.9 | 5.2 | 0.00 | 0.00 | 0.00 | 81 | 1018.7 |
| 20260502054017 | 60 | 124 | 3.5 | 5.2 | 0.00 | 0.00 | 0.00 | 81 | 1018.5 |
| 20260502053017 | 60 | 117 | 0.9 | 7.8 | 0.00 | 0.00 | 0.00 | 81 | 1018.9 |
| 20260502052015 | 60 | 102 | 1.7 | 7.0 | 0.00 | 0.00 | 0.00 | 80 | 1019.1 |
| 20260502051017 | 60 | 125 | 3.5 | 7.8 | 0.00 | 0.00 | 0.00 | 80 | 1019.1 |
| 20260502050017 | 60 | 117 | 1.7 | 6.1 | 0.00 | 0.00 | 0.00 | 80 | 1019.3 |
| 20260502045017 | 60 | 92 | 0.9 | 5.2 | 0.00 | 0.00 | 0.00 | 80 | 1019.3 |
| 20260502044017 | 60 | 124 | 2.6 | 5.2 | 0.00 | 0.00 | 0.00 | 80 | 1019.1 |
| 20260502043017 | 60 | 116 | 1.7 | 4.3 | 0.00 | 0.00 | 0.00 | 80 | 1019.1 |
| 20260502042017 | 60 | 185 | 0.9 | 4.3 | 0.00 | 0.00 | 0.00 | 80 | 1019.1 |
| 20260502041015 | 60 | 125 | 3.5 | 6.1 | 0.00 | 0.00 | 0.00 | 80 | 1019.0 |
| 20260502040017 | 60 | 119 | 2.6 | 5.2 | 0.00 | 0.00 | 0.00 | 80 | 1019.2 |
| 20260502035035 | 60 | 253 | 1.7 | 3.5 | 0.00 | 0.00 | 0.00 | 80 | 1019.3 |
| 20260502034035 | 60 | 105 | 1.7 | 3.5 | 0.00 | 0.00 | 0.00 | 80 | 1019.2 |
| 20260502033015 | 60 | 135 | 0.9 | 4.3 | 0.00 | 0.00 | 0.00 | 79 | 1019.2 |
| 20260502032015 | 60 | 125 | 0.9 | 7.0 | 0.00 | 0.00 | 0.00 | 79 | 1019.1 |
| 20260502031015 | 60 | 141 | 1.7 | 5.2 | 0.00 | 0.00 | 0.00 | 79 | 1019.1 |
| 20260502030015 | 60 | 115 | 0.9 | 5.2 | 0.00 | 0.00 | 0.00 | 79 | 1019.2 |
| 20260502025015 | 60 | 110 | 1.7 | 7.0 | 0.00 | 0.00 | 0.00 | 79 | 1019.3 |
| 20260502024035 | 60 | 258 | 1.7 | 5.2 | 0.00 | 0.00 | 0.00 | 80 | 1019.4 |
| 20260502023015 | 60 | 272 | 0.9 | 3.5 | 0.00 | 0.00 | 0.00 | 80 | 1019.2 |
| 20260502022015 | 60 | 100 | 0.9 | 6.1 | 0.00 | 0.00 | 0.00 | 79 | 1019.2 |